Погода в Черепаново

Россия / Новосибирская область     54°13′42″N   83°22′19″E
темп.,
°C
ветер,
м/с
пор.,
м/с
влажн.,
%
обл.,
%
осадки,
мм/ч
давл.,
гПа
погр.,
м
25 февраля, чт
чт2501:00−16зюз7187982 1.4 1014639
04:00−21зюз49860 0.0 1017169
07:00−24ю57899 0.0 1019121
10:00−23ююз4119321 0.0 1020273
13:00−19юз7118732 0.0 10211165
16:00−18юз91685100 0.1 10211885
19:00−19юз51195100 0.3 1022925
22:00−20юз41197100 0.3 1022603
26 февраля, пт
пт2601:00−21ююз61290100 0.3 10231060
04:00−23юз61295100 0.1 1025808
07:00−24юз71293100 0.1 1028773
10:00−25юз81391100 0.1 1030808
13:00−22юз81390100 0.2 10331053
16:00−23зюз81288100 0.1 1035923
19:00−26юз51294100 0.1 1037513
22:00−28юз41398100 0.0 1039357
27 февраля, сб
сб2701:00−30юз489997 0.0 1039148
04:00−28ююз379999 0.0 1039181
07:00−27ююз4998100 0.1 1039322
10:00−26юз4896100 0.1 1040398
13:00−23юз5793100 0.1 1040547
16:00−21юз4791100 0.0 1039584
19:00−25юз339692 0.1 103928
22:00−26ююз34950 0.0 103841
28 февраля, вс
вс2801:00−27ю44980 0.0 103760
04:00−28ююв46970 0.0 103676
07:00−26ююв4910023 0.0 1035122
10:00−21ююв61198100 0.0 1033271
13:00−14ю71289100 0.0 1029584
16:00−10ю71284100 0.0 1026850
19:00−9ю81593100 0.6 1022976
22:00−9ююз81494100 1.6 1019914
1 марта, пн
пн101:00−8ююз71493100 2.5 1017777
04:00−8ююз81592100 0.4 1015723
07:00−7ююз81692100 0.6 1013698
10:00−6ююз91692100 0.5 1012774
13:00−4ююз91594100 1.1 1011912
16:00−2юз101792100 0.4 1010979
19:00−2юз91695100 1.0 1009881
22:00−2юз91596100 1.3 1009929